EW8669 Weather Reports


Display with metric or nautical units.
time (UTC)temp
F
wind
direction
speed
MPH
gust
MPH
rain 1hr
in
rain 24hr
in
rain mn
in
humidity
%
barometer
mb
20260902204617 80 0 0.0 0.0 0.07 0.22 0.22 93 1013.5
20260902204026 80 0 0.0 0.0 0.07 0.22 0.22 93 1013.5
20260902203531 80 0 0.0 0.0 0.07 0.22 0.22 93 1013.5
20260902203045 80 0 0.0 0.0 0.07 0.22 0.22 93 1013.5
20260902202525 79 0 0.0 0.0 0.07 0.22 0.22 93 1013.6
20260902202025 79 0 0.0 0.0 0.07 0.22 0.22 93 1013.7
20260902201544 79 0 0.0 0.0 0.09 0.22 0.22 93 1013.8
20260902201025 79 0 0.0 0.0 0.16 0.22 0.22 92 1013.8
20260902200521 79 0 0.0 0.0 0.18 0.22 0.22 92 1013.8
20260902200051 79 0 0.0 0.0 0.17 0.20 0.20 92 1013.8
20260902195523 79 0 0.0 0.0 0.15 0.17 0.17 92 1013.7
20260902195025 79 0 0.0 0.0 0.15 0.15 0.15 92 1013.9
20260902194547 80 0 0.0 0.0 0.15 0.15 0.15 92 1014.1
20260902194025 80 0 0.0 0.0 0.15 0.15 0.15 93 1014.1
20260902193525 80 0 0.0 0.0 0.15 0.15 0.15 92 1014.1
20260902193046 79 0 0.0 0.0 0.15 0.15 0.15 92 1014.1
20260902192526 80 0 0.0 0.0 0.15 0.15 0.15 92 1014.1
20260902192024 80 0 0.0 0.0 0.14 0.14 0.14 91 1014.0
20260902191541 80 0 0.0 0.0 0.13 0.13 0.13 91 1014.2
20260902191024 80 0 0.0 0.0 0.06 0.06 0.06 91 1014.2
20260902190520 80 0 0.0 11.0 0.04 0.04 0.04 90 1014.1
20260902190051 81 0 0.0 12.0 0.03 0.03 0.03 89 1014.3
20260902185525 81 78 9.0 12.0 0.02 0.02 0.02 89 1014.4
20260902185022 82 105 8.0 11.0 0.00 0.00 0.00 88 1014.5
20260902184552 82 115 8.0 12.0 0.00 0.00 0.00 87 1014.4
20260902184023 82 127 8.0 13.0 0.00 0.00 0.00 87 1014.5
20260902183524 83 132 9.0 13.0 0.00 0.00 0.00 86 1014.6
20260902183058 84 140 6.0 15.0 0.00 0.00 0.00 85 1014.6
20260902182525 85 132 8.0 15.0 0.00 0.00 0.00 83 1014.7
20260902182026 86 140 1.0 15.0 0.00 0.00 0.00 81 1014.7
20260902181543 87 0 0.0 1.0 0.00 0.00 0.00 79 1014.7
20260902181024 87 0 0.0 0.0 0.00 0.00 0.00 77 1014.7
20260902180524 87 0 0.0 0.0 0.00 0.00 0.00 78 1014.8
20260902180054 87 0 0.0 0.0 0.00 0.00 0.00 79 1014.7
20260902175524 87 0 0.0 0.0 0.00 0.00 0.00 80 1014.6
20260902175025 87 0 0.0 0.0 0.00 0.00 0.00 81 1014.6
20260902174549 86 0 0.0 0.0 0.00 0.00 0.00 80 1014.8
20260902174024 86 0 0.0 0.0 0.00 0.00 0.00 79 1014.7
20260902173524 86 0 0.0 0.0 0.00 0.00 0.00 79 1014.7
20260902173055 86 0 0.0 0.0 0.00 0.00 0.00 78 1014.8
20260902172524 87 0 0.0 0.0 0.00 0.00 0.00 78 1014.7
20260902172025 86 0 0.0 0.0 0.00 0.00 0.00 78 1014.8
20260902171554 86 0 0.0 0.0 0.00 0.00 0.00 78 1014.9
20260902171025 86 0 0.0 0.0 0.00 0.00 0.00 77 1015.1
20260902170524 86 0 0.0 0.0 0.00 0.00 0.00 82 1015.2
20260902170051 85 0 0.0 11.0 0.00 0.00 0.00 80 1015.4
20260902165525 85 0 0.0 15.0 0.00 0.07 0.00 82 1015.3
20260902165021 84 0 5.0 15.0 0.00 0.07 0.00 84 1015.4
20260902164600 85 99 6.0 11.0 0.00 0.07 0.00 83 1015.4
20260902164024 85 0 0.0 0.0 0.00 0.07 0.00 82 1015.4
20260902163524 87 0 0.0 0.0 0.00 0.07 0.00 80 1015.4
20260902163049 87 0 0.0 0.0 0.00 0.07 0.00 81 1015.4
20260902162525 87 0 0.0 0.0 0.00 0.07 0.00 80 1015.5
20260902162025 88 0 0.0 0.0 0.00 0.07 0.00 78 1015.5
20260902161547 88 0 0.0 0.0 0.00 0.07 0.00 79 1015.4
20260902161024 88 0 0.0 0.0 0.00 0.07 0.00 78 1015.6
20260902160524 87 0 0.0 0.0 0.00 0.07 0.00 77 1015.6
20260902160046 87 0 0.0 0.0 0.00 0.07 0.00 78 1015.7
20260902155525 87 0 0.0 0.0 0.00 0.07 0.00 78 1015.8
20260902155025 87 0 0.0 0.0 0.00 0.07 0.00 79 1015.8
20260902154552 88 0 0.0 0.0 0.00 0.07 0.00 78 1015.8
20260902154025 88 0 0.0 0.0 0.00 0.07 0.00 79 1015.8
20260902153525 87 0 0.0 0.0 0.00 0.07 0.00 79 1015.8
20260902153054 87 0 0.0 0.0 0.00 0.07 0.00 78 1015.8
20260902152521 87 0 0.0 0.0 0.00 0.07 0.00 79 1015.8
20260902152024 86 0 0.0 0.0 0.00 0.07 0.00 80 1015.9
20260902151547 86 0 0.0 0.0 0.00 0.07 0.00 81 1015.9
20260902151023 86 0 0.0 0.0 0.00 0.07 0.00 81 1015.8
20260902150524 86 0 0.0 0.0 0.00 0.07 0.00 81 1015.9
20260902150042 85 0 0.0 0.0 0.00 0.07 0.00 83 1015.9
20260902145526 85 0 0.0 0.0 0.00 0.07 0.00 82 1015.9
20260902145025 85 0 0.0 0.0 0.00 0.07 0.00 81 1016.0
20260902144549 85 0 0.0 0.0 0.00 0.07 0.00 82 1015.9
20260902144025 85 0 0.0 0.0 0.00 0.07 0.00 84 1015.9
20260902143528 84 0 0.0 0.0 0.00 0.07 0.00 85 1016.0
20260902143052 84 0 0.0 0.0 0.00 0.07 0.00 84 1016.0
20260902142525 85 0 0.0 0.0 0.00 0.07 0.00 85 1016.1
20260902142025 84 0 0.0 0.0 0.00 0.07 0.00 85 1015.9
20260902141545 85 0 0.0 0.0 0.00 0.07 0.00 85 1015.9
20260902141024 84 0 0.0 0.0 0.00 0.07 0.00 85 1015.8
20260902140525 84 0 0.0 1.0 0.00 0.07 0.00 86 1015.7
20260902140042 84 0 0.0 8.0 0.00 0.07 0.00 86 1015.8
20260902135529 84 0 0.0 8.0 0.00 0.07 0.00 86 1015.9
20260902135024 84 77 1.0 9.0 0.00 0.07 0.00 86 1015.9
20260902134543 84 328 3.0 9.0 0.00 0.07 0.00 87 1015.9
20260902134025 83 75 2.0 8.0 0.00 0.07 0.00 88 1015.9
20260902133526 83 0 0.0 0.0 0.00 0.07 0.00 89 1015.8
20260902133055 82 0 0.0 0.0 0.00 0.07 0.00 91 1015.8
20260902132527 82 0 0.0 2.0 0.00 0.07 0.00 92 1015.8
20260902132023 81 0 0.0 7.0 0.00 0.07 0.00 93 1015.9
20260902131547 81 0 1.0 7.0 0.00 0.07 0.00 94 1015.9
20260902131025 81 102 1.0 7.0 0.00 0.07 0.00 94 1015.8
20260902130524 80 97 0.0 4.0 0.00 0.07 0.00 94 1015.9
20260902130051 80 49 1.0 4.0 0.00 0.07 0.00 95 1015.8
20260902125524 80 0 0.0 0.0 0.00 0.07 0.00 95 1015.8
20260902125025 79 0 0.0 0.0 0.00 0.07 0.00 95 1015.9
20260902124551 79 0 0.0 0.0 0.00 0.07 0.00 95 1015.9
20260902124030 79 0 0.0 0.0 0.00 0.07 0.00 95 1015.9
20260902123526 79 0 0.0 0.0 0.00 0.07 0.00 95 1015.9
20260902123050 79 0 0.0 0.0 0.00 0.07 0.00 95 1015.8
20260902122526 78 0 0.0 0.0 0.00 0.07 0.00 95 1015.8
20260902122024 78 0 0.0 0.0 0.00 0.07 0.00 95 1015.8
20260902121546 78 0 0.0 0.0 0.00 0.07 0.00 95 1015.7
20260902121024 78 0 0.0 0.0 0.00 0.07 0.00 95 1015.7
20260902120527 78 0 0.0 0.0 0.00 0.07 0.00 95 1015.6
20260902120053 78 0 0.0 0.0 0.00 0.07 0.00 95 1015.6
20260902115524 77 0 0.0 0.0 0.00 0.07 0.00 95 1015.6
20260902115024 77 0 0.0 0.0 0.00 0.07 0.00 95 1015.6
20260902114552 77 0 0.0 0.0 0.00 0.07 0.00 95 1015.5
20260902114025 77 0 0.0 0.0 0.00 0.07 0.00 95 1015.4
20260902113526 77 0 0.0 0.0 0.00 0.07 0.00 95 1015.4
20260902113053 77 0 0.0 0.0 0.00 0.07 0.00 95 1015.4
20260902112524 77 0 0.0 0.0 0.00 0.07 0.00 95 1015.2
20260902112024 77 0 0.0 0.0 0.00 0.07 0.00 95 1015.3
20260902111546 77 0 0.0 0.0 0.00 0.07 0.00 95 1015.3
20260902111028 77 0 0.0 0.0 0.00 0.07 0.00 94 1015.2
20260902110528 77 0 0.0 0.0 0.00 0.07 0.00 95 1015.2
20260902110049 77 0 0.0 0.0 0.00 0.07 0.00 94 1015.2
20260902105524 77 0 0.0 0.0 0.00 0.07 0.00 94 1015.1
20260902105023 77 0 0.0 0.0 0.00 0.07 0.00 94 1015.0
20260902104607 77 0 0.0 0.0 0.00 0.07 0.00 94 1014.9
20260902104022 77 0 0.0 0.0 0.00 0.07 0.00 94 1014.9
20260902103523 77 0 0.0 0.0 0.00 0.07 0.00 94 1014.9
20260902103107 77 0 0.0 0.0 0.00 0.07 0.00 94 1014.7
20260902102521 77 0 0.0 0.0 0.00 0.07 0.00 94 1014.7
20260902102027 76 0 0.0 0.0 0.00 0.07 0.00 94 1014.7
20260902101551 76 0 0.0 0.0 0.00 0.07 0.00 94 1014.6
20260902101021 76 0 0.0 0.0 0.00 0.07 0.00 94 1014.6
20260902100525 76 0 0.0 0.0 0.00 0.07 0.00 94 1014.7
20260902100042 76 0 0.0 0.0 0.00 0.07 0.00 94 1014.6
20260902095524 76 0 0.0 0.0 0.00 0.07 0.00 94 1014.7
20260902095024 77 0 0.0 0.0 0.00 0.07 0.00 94 1014.7
20260902094543 77 0 0.0 0.0 0.00 0.07 0.00 94 1014.8
20260902094021 77 0 0.0 0.0 0.00 0.07 0.00 94 1014.7
20260902093523 77 0 0.0 0.0 0.00 0.07 0.00 94 1014.8
20260902093049 77 0 0.0 0.0 0.00 0.07 0.00 94 1014.7
20260902092523 77 0 0.0 0.0 0.00 0.07 0.00 94 1014.7
20260902092025 77 0 0.0 0.0 0.00 0.07 0.00 94 1014.6
20260902091544 77 0 0.0 0.0 0.00 0.07 0.00 94 1014.5
20260902091024 77 0 0.0 0.0 0.00 0.07 0.00 94 1014.4
20260902090525 77 0 0.0 0.0 0.00 0.07 0.00 94 1014.3
20260902090053 77 0 0.0 0.0 0.00 0.07 0.00 94 1014.2
20260902085526 77 0 0.0 0.0 0.00 0.07 0.00 94 1014.2
20260902085021 77 0 0.0 0.0 0.00 0.07 0.00 94 1014.2
20260902084555 77 0 0.0 0.0 0.00 0.07 0.00 94 1014.2
20260902084021 77 0 0.0 0.0 0.00 0.07 0.00 94 1014.2
20260902083525 77 0 0.0 0.0 0.00 0.07 0.00 94 1014.2
20260902083049 77 0 0.0 0.0 0.00 0.07 0.00 94 1014.2
20260902082524 77 0 0.0 0.0 0.00 0.07 0.00 94 1014.3
20260902082021 77 0 0.0 0.0 0.00 0.07 0.00 94 1014.3
20260902081545 77 0 0.0 0.0 0.00 0.07 0.00 94 1014.3
20260902081024 77 0 0.0 0.0 0.00 0.07 0.00 94 1014.3
20260902080525 77 0 0.0 0.0 0.00 0.07 0.00 94 1014.3
20260902080044 77 0 0.0 0.0 0.00 0.07 0.00 94 1014.2
20260902075524 77 0 0.0 0.0 0.00 0.07 0.00 94 1014.3
20260902075023 77 0 0.0 0.0 0.00 0.07 0.00 94 1014.2
20260902074551 77 0 0.0 0.0 0.00 0.07 0.00 94 1014.2
20260902074022 77 0 0.0 0.0 0.00 0.07 0.00 94 1014.3
20260902073525 77 0 0.0 0.0 0.00 0.07 0.00 94 1014.4
20260902073048 77 0 0.0 0.0 0.00 0.07 0.00 94 1014.5
20260902072525 77 0 0.0 0.0 0.00 0.07 0.00 94 1014.4
20260902072024 77 0 0.0 0.0 0.00 0.07 0.00 94 1014.4
20260902071545 77 0 0.0 0.0 0.00 0.07 0.00 94 1014.4
20260902071021 77 0 0.0 0.0 0.00 0.07 0.00 94 1014.6
20260902070523 77 0 0.0 0.0 0.00 0.07 0.00 94 1014.6
20260902070046 77 0 0.0 0.0 0.00 0.07 0.00 94 1014.7
20260902065527 77 0 0.0 0.0 0.00 0.07 0.00 94 1014.7
20260902065027 77 0 0.0 0.0 0.00 0.07 0.00 94 1014.7
20260902064544 77 0 0.0 0.0 0.00 0.07 0.00 94 1014.7
20260902064025 76 0 0.0 0.0 0.00 0.07 0.00 94 1014.7
20260902063525 77 0 0.0 0.0 0.00 0.07 0.00 94 1014.6
20260902063053 77 0 0.0 0.0 0.00 0.07 0.00 93 1014.6
20260902062529 77 0 0.0 0.0 0.00 0.07 0.00 93 1014.6
20260902062024 77 0 0.0 0.0 0.00 0.07 0.00 93 1014.6
20260902061607 77 0 0.0 0.0 0.00 0.07 0.00 93 1014.8
20260902061022 77 0 0.0 0.0 0.00 0.07 0.00 93 1014.8
20260902060522 77 0 0.0 0.0 0.00 0.07 0.00 93 1015.0
20260902060044 77 0 0.0 0.0 0.00 0.07 0.00 93 1015.0
20260902055527 77 0 0.0 0.0 0.00 0.07 0.00 93 1014.9
20260902055021 77 0 0.0 0.0 0.00 0.07 0.00 93 1015.0
20260902054542 77 0 0.0 0.0 0.00 0.07 0.00 93 1015.0
20260902054025 77 0 0.0 0.0 0.00 0.07 0.00 93 1015.1
20260902053525 77 0 0.0 0.0 0.00 0.07 0.00 93 1015.1
20260902053052 77 0 0.0 0.0 0.00 0.07 0.00 93 1015.1
20260902052520 77 0 0.0 0.0 0.00 0.07 0.00 93 1015.1
20260902052022 77 0 0.0 0.0 0.00 0.07 0.00 93 1015.1
20260902051558 77 0 0.0 0.0 0.00 0.07 0.00 93 1015.2
20260902051021 77 0 0.0 0.0 0.00 0.07 0.00 93 1015.2
20260902050522 77 0 0.0 0.0 0.00 0.07 0.00 93 1015.1
20260902050043 77 0 0.0 0.0 0.00 0.07 0.00 93 1015.2
20260902045525 77 0 0.0 0.0 0.00 0.07 0.00 93 1015.1
20260902045025 77 0 0.0 3.0 0.00 0.07 0.00 92 1015.1
20260902044607 77 0 0.0 3.0 0.00 0.07 0.00 92 1015.0
20260902044023 77 309 1.0 3.0 0.00 0.07 0.00 92 1015.0
20260902043521 77 0 0.0 2.0 0.00 0.07 0.00 92 1015.0
20260902043051 77 0 0.0 2.0 0.00 0.07 0.00 92 1015.0
20260902042524 77 0 0.0 3.0 0.00 0.07 0.00 92 1015.1
20260902042024 77 317 1.0 3.0 0.00 0.07 0.00 92 1015.1
20260902041548 77 315 1.0 3.0 0.00 0.07 0.00 92 1015.2
20260902041025 77 0 0.0 0.0 0.00 0.07 0.00 92 1015.1
20260902040525 77 0 0.0 0.0 0.00 0.07 0.00 91 1015.2
20260902040046 77 0 0.0 0.0 0.00 0.07 0.00 91 1015.2
20260902035525 77 0 0.0 0.0 0.00 0.07 0.07 91 1015.3
20260902035029 77 0 0.0 0.0 0.00 0.07 0.07 91 1015.4
20260902034553 77 0 0.0 0.0 0.00 0.07 0.07 91 1015.5
20260902034023 77 0 0.0 0.0 0.00 0.07 0.07 91 1015.5
20260902033521 77 0 0.0 0.0 0.00 0.07 0.07 91 1015.6
20260902033048 77 0 0.0 0.0 0.00 0.07 0.07 90 1015.7
20260902032526 78 0 0.0 0.0 0.00 0.07 0.07 90 1015.8
20260902032029 78 0 0.0 0.0 0.00 0.07 0.07 90 1015.8
20260902031558 78 0 0.0 0.0 0.00 0.07 0.07 90 1015.9
20260902031024 78 0 0.0 0.0 0.00 0.07 0.07 90 1015.9
20260902030527 78 0 0.0 0.0 0.00 0.07 0.07 90 1016.0
20260902030042 78 0 0.0 0.0 0.00 0.07 0.07 90 1016.0
20260902025523 78 0 0.0 0.0 0.00 0.07 0.07 90 1015.9
20260902025025 78 0 0.0 0.0 0.00 0.07 0.07 90 1015.9
20260902024559 78 0 0.0 0.0 0.00 0.07 0.07 90 1016.0
20260902024021 78 0 0.0 0.0 0.00 0.07 0.07 90 1016.0
20260902023524 78 0 0.0 0.0 0.00 0.07 0.07 90 1015.9
20260902023050 78 0 0.0 0.0 0.00 0.07 0.07 89 1016.0
20260902022524 78 0 0.0 0.0 0.00 0.07 0.07 90 1016.1
20260902022021 78 0 0.0 0.0 0.00 0.07 0.07 89 1016.2
20260902021549 79 0 0.0 0.0 0.00 0.07 0.07 89 1016.2
20260902021029 79 0 0.0 0.0 0.00 0.07 0.07 89 1016.2
20260902020528 79 0 0.0 0.0 0.00 0.07 0.07 89 1016.1
20260902020046 79 0 0.0 0.0 0.00 0.07 0.07 89 1016.1
20260902015524 79 0 0.0 0.0 0.00 0.07 0.07 89 1016.2
20260902015024 79 0 0.0 0.0 0.00 0.07 0.07 89 1016.3
20260902014552 79 0 0.0 0.0 0.00 0.07 0.07 89 1016.3
20260902014028 79 0 0.0 0.0 0.00 0.07 0.07 89 1016.3
20260902013524 79 0 0.0 0.0 0.00 0.07 0.07 89 1016.2
20260902013050 79 0 0.0 0.0 0.00 0.07 0.07 89 1016.1
20260902012524 79 0 0.0 0.0 0.00 0.07 0.07 89 1016.0
20260902012024 79 0 0.0 0.0 0.00 0.07 0.07 89 1015.9
20260902011543 79 0 0.0 0.0 0.00 0.07 0.07 89 1016.0
20260902011025 80 0 0.0 0.0 0.00 0.07 0.07 89 1016.0
20260902010525 80 0 0.0 0.0 0.00 0.07 0.07 89 1016.0
20260902010059 80 0 0.0 0.0 0.00 0.07 0.07 89 1015.8
20260902005523 80 0 0.0 0.0 0.00 0.07 0.07 89 1015.7
20260902005026 80 0 0.0 0.0 0.00 0.07 0.07 89 1015.7
20260902004552 80 0 0.0 0.0 0.00 0.07 0.07 89 1015.7
20260902004026 80 0 0.0 0.0 0.00 0.07 0.07 88 1015.8
20260902003523 81 0 0.0 0.0 0.00 0.07 0.07 88 1015.8
20260902003049 81 0 0.0 0.0 0.00 0.07 0.07 88 1015.8
20260902002528 81 0 0.0 0.0 0.00 0.07 0.07 88 1015.8
20260902002026 81 0 0.0 0.0 0.00 0.07 0.07 88 1015.7
20260902001541 81 0 0.0 0.0 0.00 0.07 0.07 88 1015.6
20260902001025 81 0 0.0 1.0 0.00 0.07 0.07 88 1015.7
20260902000525 81 0 0.0 1.0 0.00 0.07 0.07 87 1015.6
20260902000052 81 0 0.0 4.0 0.00 0.07 0.07 87 1015.5
20260901235527 81 0 0.0 4.0 0.00 0.07 0.07 87 1015.5
20260901235027 81 53 1.0 6.0 0.00 0.07 0.07 87 1015.5
20260901234550 81 70 2.0 6.0 0.00 0.07 0.07 87 1015.6
20260901234028 82 55 2.0 6.0 0.00 0.07 0.07 86 1015.7
20260901233525 82 69 3.0 6.0 0.00 0.07 0.07 86 1015.6
20260901233050 82 82 2.0 5.0 0.00 0.07 0.07 86 1015.5
20260901232529 82 72 2.0 4.0 0.00 0.07 0.07 85 1015.5
20260901232024 82 80 2.0 7.0 0.00 0.07 0.07 85 1015.4
20260901231547 82 70 2.0 7.0 0.00 0.07 0.07 84 1015.6
20260901231023 82 77 3.0 8.0 0.00 0.07 0.07 84 1015.6
20260901230525 83 59 4.0 8.0 0.00 0.07 0.07 83 1015.5
20260901230105 83 0 0.0 0.0 0.00 0.07 0.07 83 1015.5
20260901225522 83 0 0.0 0.0 0.00 0.07 0.07 83 1015.4
20260901225024 83 0 0.0 2.0 0.00 0.07 0.07 83 1015.3
20260901224551 83 0 0.0 2.0 0.00 0.07 0.07 83 1015.2
20260901224028 83 0 0.0 1.0 0.00 0.07 0.07 84 1015.3
20260901223525 83 0 0.0 0.0 0.00 0.07 0.07 83 1015.1
20260901223046 83 0 0.0 0.0 0.00 0.07 0.07 83 1015.1
20260901222525 83 0 0.0 0.0 0.00 0.07 0.07 84 1015.2
20260901222026 83 0 0.0 0.0 0.00 0.07 0.07 83 1015.1
20260901221554 83 0 0.0 2.0 0.00 0.07 0.07 83 1015.1
20260901221025 83 0 0.0 2.0 0.00 0.07 0.07 83 1015.0
20260901220522 83 0 0.0 0.0 0.00 0.07 0.07 83 1015.0
20260901220042 84 0 0.0 0.0 0.00 0.07 0.07 84 1014.7
20260901215525 84 0 0.0 0.0 0.00 0.08 0.07 84 1014.8
20260901215021 84 0 0.0 0.0 0.00 0.08 0.07 84 1014.7
20260901214551 84 0 0.0 0.0 0.00 0.08 0.07 84 1014.7
20260901214024 84 0 0.0 0.0 0.00 0.08 0.07 84 1014.9
20260901213528 84 0 0.0 0.0 0.00 0.08 0.07 83 1014.7
20260901213052 84 0 0.0 0.0 0.00 0.08 0.07 83 1014.8
20260901212523 84 0 0.0 0.0 0.00 0.08 0.07 83 1014.9
20260901212027 84 0 0.0 0.0 0.00 0.08 0.07 83 1014.8
20260901211540 84 0 0.0 0.0 0.00 0.08 0.07 83 1014.8
20260901211028 84 0 0.0 0.0 0.00 0.08 0.07 83 1014.9
20260901210526 84 0 0.0 0.0 0.00 0.08 0.07 83 1014.9
20260901210048 84 0 0.0 0.0 0.00 0.08 0.07 83 1014.8
20260901205526 84 0 0.0 0.0 0.00 0.16 0.07 83 1014.9
20260901205026 84 0 0.0 0.0 0.00 0.16 0.07 83 1015.0